SCP
0 0 0 0 0 0 0 0 0 0 0 0 0 0 0 0 0 0 0 0 0 0 0 0 0 0 0 0 0 0 0 0 0 0 0 0 0 0 0 0 0 0 0
0 0 0 0 0 0 0 0 0 0 0 0 0 0 0 0 0 0 0 0 0 0 0 0 0 0 0 0 0 0 0 0 0 0 0 0 0 0 0 0 0 0 0
0 0 0 0 0 0 0 0 0 0 0 0 0 0 0 0 0 0 0 0 0 0 0 0 0 0 0 0 0 0 0 0 0 0 0 0 0 0 0 0 0 0 0
0 0 0 0 0 0 0 0 0 0 0 0 0 0 0 0 0 0 0 0 0 0 0 0 0 0 0 0 0 0 0 0 0 0 0 0 0 0 0 0 0 0 0
0 0 0 0 0 0 0 0 0 0 0 0 0 0 0 0 0 0 0 0 0 0 0 0 0 0 0 0 0 0 0 0 0 0 0 0 0 0 0 0 0 0 0
0 0 0 0 0 0 0 0 0 0 0 0 0 0 0 0 0 0 0 0 0 0 0 0 0 0 0 0 0 0 0 0 0 0 0 0 0 0 0 0 0 0 0
0 0 0 0 0 0 0 0 0 0 0 0 0 0 0 0 0 0 0 0 0 0 0 0 0 0 0 0 0 0 0 0 0 0 0 0 0 0 0 0 0 0 0
0 0 0 0 0 0 0 0 0 0 0 0 0 0 0 0 0 0 0 0 0 0 0 0 0 0 0 0 0 0 0 0 0 0 0 0 0 0 0 0 0 0 0
1 1 1 0 0 0 0 0 0 0 0 0 0 0 0 0 0 0 0 0 0 0 0 0 0 0 0 0 0 0 0 0 0 0 0 0 0 0 0 0 0 0 0
1 1 1 1 1 0 0 0 0 0 0 0 0 0 0 0 0 0 0 0 0 0 0 0 0 0 0 0 0 0 0 0 0 0 0 0 0 0 0 0 0 0 0
1 1 1 1 1 1 0 0 0 0 0 0 0 0 0 0 0 0 0 0 0 0 0 0 0 0 0 0 0 0 0 0 0 0 0 0 0 0 0 0 0 0 0
0 1 1 1 1 1 1 1 1 1 1 1 1 0 0 0 0 0 0 0 0 0 0 0 0 0 0 0 0 0 0 0 0 0 0 0 0 0 0 0 0 0 0
0 0 1 1 1 1 1 1 1 1 1 1 1 1 0 0 0 0 0 0 0 0 0 0 0 0 0 0 0 0 0 0 0 0 0 0 0 0 0 0 0 0 0
1 1 1 1 1 1 1 1 1 1 1 1 1 0 0 0 0 0 0 0 0 0 0 0 0 0 0 0 0 0 0 0 0 0 0 0 0 0 0 0 0 0 0
1 1 1 1 1 0 0 0 0 1 1 0 0 0 0 0 0 0 0 0 0 0 0 0 0 0 0 0 0 0 0 0 0 0 0 0 0 0 0 0 0 0 0
1 1 1 1 1 1 1 1 0 0 0 0 0 0 0 0 0 0 0 0 0 0 0 0 0 0 0 0 0 0 0 0 0 0 0 0 0 0 0 0 0 0 0
1 1 1 1 1 1 1 1 1 0 0 0 0 0 0 0 0 0 0 0 0 0 0 0 0 0 0 0 0 0 0 0 0 0 0 0 0 0 0 0 0 0 0
1 1 1 1 1 1 1 1 1 1 1 0 0 0 0 0 0 0 0 0 0 0 0 0 0 0 0 0 0 0 0 0 0 0 0 0 0 0 0 0 0 0 0
1 0 0 0 0 1 1 1 1 1 1 1 0 0 0 0 0 0 0 0 0 0 0 0 0 0 0 0 0 0 0 0 0 0 0 0 0 0 0 0 0 0 0
0 0 0 0 0 0 0 1 1 1 1 1 1 0 0 0 0 0 0 0 0 0 0 0 0 0 0 0 0 0 0 0 0 0 0 0 0 0 0 0 0 0 0
0 0 0 0 0 0 0 1 1 1 1 1 1 1 0 0 0 0 0 0 0 0 0 0 0 0 0 0 0 0 0 0 0 0 0 0 0 0 0 0 0 0 0
0 0 0 0 0 0 0 0 1 1 1 1 0 0 0 0 0 0 0 0 0 0 0 0 0 0 0 0 0 0 0 0 0 0 0 0 0 0 0 0 0 0 0
0 0 0 0 1 0 0 0 1 0 0 0 0 0 0 0 0 0 0 0 0 0 0 0 0 0 0 0 0 0 0 0 0 0 0 0 0 0 0 0 0 0 0
0 0 0 0 1 1 1 1 1 0 0 0 0 0 0 0 0 0 0 0 0 0 0 0 0 0 0 0 0 0 0 0 0 0 0 0 0 0 0 0 0 0 0
0 0 0 0 1 1 1 1 0 0 0 0 0 0 0 0 0 0 0 0 0 0 0 0 0 0 0 0 0 0 0 0 0 0 0 0 0 0 0 0 0 0 0
0 0 0 0 1 1 1 0 0 0 0 0 0 0 0 0 0 0 0 0 0 0 0 0 0 0 0 0 0 0 0 0 0 0 0 0 0 0 0 0 0 0 0
Wind_Speed
6 6 5 4 4 4 3 3 3 2 2 1 1 1 1 1 1 1 1 1 0 0 0 0 0 1 1 1 1 1 1 2 2 0 0 1 1 2 2 2 2 2 3
6 6 5 4 4 4 4 4 3 3 2 2 2 1 1 1 0 0 0 0 0 0 0 0 0 1 1 1 1 1 1 1 2 2 1 1 1 2 2 2 2 2 2
6 6 5 5 5 5 4 4 3 3 2 2 2 2 2 1 1 1 1 0 0 0 0 0 0 1 1 1 1 1 1 2 2 2 1 1 1 1 2 2 2 2 1
6 7 6 6 6 5 5 4 4 3 3 3 2 2 2 2 1 1 1 1 0 0 0 0 1 1 1 1 1 1 2 2 2 2 2 1 1 1 2 1 1 1 1
7 7 6 5 5 4 4 4 3 3 4 3 2 2 2 2 2 2 2 1 1 0 0 1 1 1 1 1 1 2 3 2 2 2 2 1 1 1 1 1 1 1 0
7 6 6 5 5 5 5 4 3 3 3 3 3 3 2 2 3 4 3 2 2 2 1 1 1 0 0 1 2 3 4 4 4 3 2 2 3 2 2 2 2 1 1
7 6 5 6 6 6 5 4 4 4 3 3 3 3 3 4 4 4 4 3 2 2 2 1 0 1 1 1 2 2 2 2 4 4 4 4 4 4 4 3 3 2 1
6 6 6 6 6 5 5 5 4 4 4 4 4 4 3 4 4 4 4 3 2 2 2 2 2 1 1 2 2 1 1 0 1 2 3 3 3 4 4 4 4 2 1
7 7 7 6 6 6 6 6 5 4 4 4 3 4 4 4 4 4 4 2 2 2 2 2 2 2 2 3 3 2 0 1 1 2 1 1 2 4 4 4 4 3 1
8 7 6 6 6 6 6 5 4 4 4 4 3 3 4 4 4 5 5 3 3 2 1 1 2 3 3 4 4 3 2 2 1 1 1 1 1 3 5 5 4 3 2
5 5 5 6 6 6 5 4 4 4 3 3 3 3 3 4 5 5 6 4 4 3 2 2 2 3 4 4 4 4 4 3 2 2 1 0 1 1 2 3 3 3 3
5 5 5 5 5 5 4 4 4 4 4 3 3 3 3 3 4 5 7 7 6 4 4 3 3 4 5 5 4 3 3 3 2 2 1 1 1 1 1 2 3 3 3
5 5 5 5 5 5 5 5 4 4 4 4 3 4 4 3 4 6 7 8 8 5 4 5 4 5 4 3 3 3 3 3 2 2 2 2 2 2 1 1 1 1 1
6 5 5 5 4 4 4 5 5 5 5 5 5 5 4 4 4 3 4 5 6 4 3 3 3 3 3 2 2 2 2 3 3 3 3 2 1 1 1 1 1 1 1
5 5 4 5 5 5 4 5 6 6 7 7 6 6 5 6 7 8 6 5 5 4 3 2 2 2 2 2 2 2 3 3 3 3 3 2 2 2 2 2 2 2 2
4 4 4 4 4 4 4 3 5 7 8 10 9 7 6 7 6 8 9 8 7 7 5 3 4 4 4 4 4 3 3 4 4 3 3 3 3 3 3 2 2 3 3
5 4 3 4 4 4 5 5 4 4 6 8 9 10 9 7 7 8 8 7 6 7 4 4 5 5 5 5 5 4 4 4 4 4 4 4 3 3 3 3 3 3 3
5 5 5 4 5 5 5 5 5 5 4 4 6 8 9 8 8 7 7 5 3 4 5 5 5 5 4 5 5 5 4 4 4 4 4 4 4 4 4 4 4 4 4
4 4 4 4 4 4 5 5 5 6 5 4 2 3 6 6 5 6 7 5 5 5 6 5 5 4 4 4 4 4 4 4 4 4 4 4 4 4 4 4 4 5 4
4 5 4 3 3 4 4 4 5 5 5 4 4 4 3 4 3 4 5 5 6 6 5 5 5 4 4 4 4 4 4 4 5 4 4 4 4 4 4 5 4 4 4
3 3 4 3 3 4 4 5 5 4 4 4 4 4 6 5 5 5 5 5 5 5 5 4 4 4 4 4 4 5 5 4 4 4 4 4 4 4 4 4 4 4 4
3 3 3 3 3 3 4 5 4 4 5 5 3 3 6 4 4 4 4 4 4 4 4 4 4 3 4 4 4 4 4 4 4 4 4 4 4 4 4 4 4 4 4
2 3 3 3 3 3 4 4 4 5 5 4 3 3 3 4 4 4 3 3 3 3 3 3 3 3 2 2 3 4 4 4 4 4 4 4 4 4 4 4 4 4 4
2 3 3 3 2 3 3 3 3 4 4 3 3 3 3 3 3 4 3 3 2 2 2 3 3 3 4 3 2 3 3 3 4 4 6 5 4 4 4 4 4 4 4
2 2 2 2 2 2 2 2 2 2 2 2 2 2 2 3 3 3 3 3 3 3 3 3 2 3 3 4 3 3 3 3 4 4 4 4 5 4 4 4 4 4 4
1 1 1 1 1 1 1 2 2 2 2 2 2 2 2 3 3 3 3 3 3 2 2 2 3 3 3 3 3 2 2 2 3 3 4 3 4 3 3 3 4 4 3
Wind_Direction
183 184 185 184 183 180 185 194 193 189 177 167 171 152 111 32 45 83 68 55 94 22 11 110 34 87 105 107 116 120 130 143 152 152 79 77 92 98 86 83 81 77 77
183 181 185 180 173 180 192 197 190 188 185 181 171 158 167 159 119 134 164 59 117 68 347 57 22 77 81 107 121 126 133 138 153 156 122 94 104 133 114 105 90 87 77
176 177 178 180 179 189 196 191 185 185 187 179 172 181 199 198 191 196 189 209 186 216 240 203 286 100 83 113 136 138 135 124 129 142 132 96 79 112 104 94 80 61 85
168 172 180 188 189 191 189 186 186 183 185 194 199 205 204 200 199 199 177 179 187 240 279 249 229 187 196 178 150 148 135 124 122 127 124 111 93 99 117 119 98 61 66
166 176 186 186 180 176 178 185 187 186 193 198 198 205 204 195 201 196 197 191 189 185 2 307 264 181 172 189 168 163 151 146 143 144 144 136 149 149 169 168 159 124 19
171 183 182 173 173 179 185 184 184 189 191 190 203 209 218 226 210 196 189 194 185 184 215 297 311 340 115 112 143 163 170 170 173 170 178 187 200 191 163 163 150 147 225
175 179 179 179 182 188 187 183 193 200 199 202 214 216 228 238 221 205 196 190 195 203 207 227 279 48 97 107 99 102 125 151 172 173 184 204 196 195 176 173 178 185 216
175 180 182 185 189 185 183 193 201 200 202 212 216 221 230 245 226 208 198 190 197 213 215 210 205 212 160 136 123 104 87 123 185 181 198 211 202 187 187 182 174 154 94
182 188 188 185 186 188 196 203 204 200 208 214 213 212 224 249 234 208 189 182 195 226 235 220 202 196 182 150 140 141 123 322 53 118 143 156 160 164 162 143 145 156 201
195 193 187 184 186 195 202 204 201 199 208 206 216 216 218 239 240 218 193 190 200 216 226 224 205 194 185 169 165 166 195 233 189 102 76 90 157 164 166 175 176 176 181
190 182 183 186 191 196 195 193 190 193 196 203 214 222 224 234 240 223 202 197 201 203 210 221 220 194 186 183 181 190 210 196 170 164 156 139 138 169 187 192 192 189 194
170 179 187 188 194 194 189 193 187 185 197 211 218 236 238 236 231 226 212 207 201 199 212 215 211 193 191 190 193 205 190 159 151 156 167 199 224 227 223 210 200 207 216
170 185 191 191 194 191 192 194 191 191 204 214 217 231 241 235 231 224 217 212 205 206 213 205 198 195 194 197 204 194 172 165 169 184 208 222 227 227 193 184 200 208 226
181 192 191 192 201 199 198 198 197 200 207 213 219 229 233 231 228 219 213 210 209 210 211 201 190 189 185 180 183 189 186 192 195 207 219 227 200 181 190 196 202 207 223
186 195 195 198 203 207 208 209 208 212 207 207 218 219 220 230 228 211 201 202 202 198 170 152 168 186 198 201 205 204 199 200 209 214 207 212 211 211 215 204 202 203 218
186 197 203 204 205 207 210 226 230 225 220 216 218 215 225 228 220 206 206 204 198 177 164 190 205 209 214 216 215 216 214 215 218 215 211 211 215 219 220 208 203 212 229
193 202 206 209 210 209 210 215 234 245 235 229 226 222 221 220 211 208 203 196 192 170 183 211 214 215 217 217 216 215 220 218 212 212 213 216 221 223 221 219 218 224 236
195 202 208 214 214 215 216 220 225 230 237 245 235 227 226 223 212 201 186 161 179 188 211 219 219 218 218 218 217 217 221 217 210 213 212 213 213 218 223 225 224 231 237
196 199 205 213 218 221 221 222 226 230 233 239 235 228 222 217 211 198 173 186 203 211 218 222 223 218 214 213 216 216 215 213 211 212 214 214 214 217 227 232 233 236 240
206 208 208 209 215 221 224 228 232 229 231 234 233 228 178 165 187 190 192 205 209 217 218 219 217 215 213 212 209 208 211 214 212 212 217 218 218 221 229 235 236 238 241
206 210 217 220 216 221 224 227 234 235 235 234 237 221 188 194 207 206 200 205 211 217 216 214 215 216 214 208 208 207 210 216 216 214 215 217 218 224 232 236 240 240 243
204 210 217 225 227 229 231 228 227 232 236 236 237 213 191 201 210 211 208 210 214 215 210 203 208 213 213 209 203 203 207 213 216 215 214 216 219 225 230 236 240 240 243
208 222 231 234 233 236 237 231 225 230 234 232 227 209 196 208 211 210 210 207 202 204 202 198 201 206 206 204 203 201 206 213 215 210 212 217 220 224 228 232 236 239 242
213 220 232 239 235 232 238 242 237 234 231 227 220 210 204 200 196 199 199 193 190 192 192 195 198 202 196 189 193 204 216 221 215 211 209 213 217 222 225 230 234 238 239
216 215 217 235 244 243 242 251 250 238 230 223 214 200 191 185 185 190 186 181 181 184 189 188 191 199 202 199 198 210 217 211 213 213 210 211 217 219 224 229 235 239 240
214 215 214 224 231 236 233 230 235 240 235 219 199 188 184 182 184 186 182 177 175 178 185 187 191 191 193 203 215 220 207 203 208 208 210 211 216 224 226 230 233 232 238